Time,TemperatureF,DewpointF,PressureIn,WindDirection,WindDirectionDegrees,WindSpeedMPH,WindSpeedGustMPH,Humidity,HourlyPrecipIn,Conditions,Clouds,dailyrainin,SolarRadiationWatts/m^2,SoftwareType,DateUTC
2013-01-12 00:02:00,11.0,4.0,-100.00,WSW,245,4.0,7.0,74,0.00,,,0.00,0.000000,,2013-01-12 08:02:00,
2013-01-12 00:11:00,11.0,4.0,-100.00,WSW,245,4.0,7.0,74,0.00,,,0.00,0.000000,,2013-01-12 08:11:00,
2013-01-12 00:42:00,9.0,5.0,-100.00,South,180,4.0,6.0,82,0.00,,,0.00,0.000000,,2013-01-12 08:42:00,
2013-01-12 00:52:00,9.0,5.0,-100.00,South,180,4.0,6.0,82,0.00,,,0.00,0.000000,,2013-01-12 08:52:00,
2013-01-12 01:02:00,9.0,5.0,-100.00,South,180,4.0,6.0,82,0.00,,,0.00,0.000000,,2013-01-12 09:02:00,
2013-01-12 01:11:00,9.0,5.0,-100.00,South,180,4.0,6.0,82,0.00,,,0.00,0.000000,,2013-01-12 09:11:00,
2013-01-12 01:32:00,7.0,3.0,-100.00,South,176,5.0,8.0,83,0.00,,,0.00,0.000000,,2013-01-12 09:32:00,
2013-01-12 01:42:00,7.0,3.0,-100.00,South,176,5.0,8.0,83,0.00,,,0.00,0.000000,,2013-01-12 09:42:00,
2013-01-12 01:53:00,7.0,3.0,-100.00,South,176,5.0,8.0,83,0.00,,,0.00,0.000000,,2013-01-12 09:53:00,
2013-01-12 02:02:00,7.0,3.0,-100.00,South,176,5.0,8.0,83,0.00,,,0.00,0.000000,,2013-01-12 10:02:00,
2013-01-12 02:11:00,7.0,3.0,-100.00,South,176,5.0,8.0,83,0.00,,,0.00,0.000000,,2013-01-12 10:11:00,
2013-01-12 02:32:00,7.0,3.0,-100.00,SSW,198,3.0,6.0,83,0.00,,,0.00,0.000000,,2013-01-12 10:32:00,
2013-01-12 02:43:00,7.0,3.0,-100.00,SSW,198,3.0,6.0,83,0.00,,,0.00,0.000000,,2013-01-12 10:43:00,
2013-01-12 02:52:00,7.0,3.0,-100.00,SSW,198,3.0,6.0,83,0.00,,,0.00,0.000000,,2013-01-12 10:52:00,
2013-01-12 03:02:00,7.0,3.0,-100.00,SSW,198,3.0,6.0,83,0.00,,,0.00,0.000000,,2013-01-12 11:02:00,
2013-01-12 03:12:00,7.0,3.0,-100.00,SSW,198,3.0,6.0,83,0.00,,,0.00,0.000000,,2013-01-12 11:12:00,
2013-01-12 03:33:00,7.0,2.0,-100.00,SSW,192,4.0,6.0,78,0.00,,,0.00,0.000000,,2013-01-12 11:33:00,
2013-01-12 03:42:00,7.0,2.0,-100.00,SSW,192,4.0,6.0,78,0.00,,,0.00,0.000000,,2013-01-12 11:42:00,
2013-01-12 03:53:00,7.0,2.0,-100.00,SSW,192,4.0,6.0,78,0.00,,,0.00,0.000000,,2013-01-12 11:53:00,
2013-01-12 04:02:00,7.0,2.0,-100.00,SSW,192,4.0,6.0,78,0.00,,,0.00,0.000000,,2013-01-12 12:02:00,
2013-01-12 04:11:00,7.0,2.0,-100.00,SSW,192,4.0,6.0,78,0.00,,,0.00,0.000000,,2013-01-12 12:11:00,
2013-01-12 04:33:00,7.0,1.0,-100.00,SSW,202,3.0,6.0,75,0.00,,,0.00,0.000000,,2013-01-12 12:33:00,
2013-01-12 04:43:00,7.0,1.0,-100.00,SSW,202,3.0,6.0,75,0.00,,,0.00,0.000000,,2013-01-12 12:43:00,
2013-01-12 04:53:00,7.0,1.0,-100.00,SSW,202,3.0,6.0,75,0.00,,,0.00,0.000000,,2013-01-12 12:53:00,
2013-01-12 05:02:00,7.0,1.0,-100.00,SSW,202,3.0,6.0,75,0.00,,,0.00,0.000000,,2013-01-12 13:02:00,
2013-01-12 05:11:00,7.0,1.0,-100.00,SSW,202,3.0,6.0,75,0.00,,,0.00,0.000000,,2013-01-12 13:11:00,
2013-01-12 05:33:00,5.0,0.0,-100.00,South,184,4.0,6.0,78,0.00,,,0.00,0.000000,,2013-01-12 13:33:00,
2013-01-12 05:43:00,5.0,0.0,-100.00,South,184,4.0,6.0,78,0.00,,,0.00,0.000000,,2013-01-12 13:43:00,
2013-01-12 05:53:00,5.0,0.0,-100.00,South,184,4.0,6.0,78,0.00,,,0.00,0.000000,,2013-01-12 13:53:00,
2013-01-12 06:02:00,5.0,0.0,-100.00,South,184,4.0,6.0,78,0.00,,,0.00,0.000000,,2013-01-12 14:02:00,
2013-01-12 06:12:00,5.0,0.0,-100.00,South,184,4.0,6.0,78,0.00,,,0.00,0.000000,,2013-01-12 14:12:00,
2013-01-12 06:33:00,6.0,2.0,-100.00,SSW,198,3.0,8.0,82,0.00,,,-99.99,0.000000,,2013-01-12 14:33:00,
2013-01-12 06:43:00,6.0,2.0,-100.00,SSW,198,3.0,8.0,82,0.00,,,-99.99,0.000000,,2013-01-12 14:43:00,
2013-01-12 06:53:00,6.0,2.0,-100.00,SSW,198,3.0,8.0,82,0.00,,,-99.99,0.000000,,2013-01-12 14:53:00,
2013-01-12 07:03:00,6.0,2.0,-100.00,SSW,198,3.0,8.0,82,0.00,,,-99.99,0.000000,,2013-01-12 15:03:00,
2013-01-12 07:12:00,6.0,2.0,-100.00,SSW,198,3.0,8.0,82,0.00,,,-99.99,0.000000,,2013-01-12 15:12:00,
2013-01-12 07:33:00,6.0,1.0,-100.00,South,180,4.0,6.0,81,0.00,,,0.00,0.000000,,2013-01-12 15:33:00,
2013-01-12 07:43:00,6.0,1.0,-100.00,South,180,4.0,6.0,81,0.00,,,0.00,0.000000,,2013-01-12 15:43:00,
2013-01-12 07:53:00,6.0,1.0,-100.00,South,180,4.0,6.0,81,0.00,,,0.00,0.000000,,2013-01-12 15:53:00,
2013-01-12 08:02:00,6.0,1.0,-100.00,South,180,4.0,6.0,81,0.00,,,0.00,0.000000,,2013-01-12 16:02:00,
2013-01-12 08:12:00,6.0,1.0,-100.00,South,180,4.0,6.0,81,0.00,,,0.00,0.000000,,2013-01-12 16:12:00,
2013-01-12 08:33:00,6.0,1.0,-100.00,SSW,206,4.0,8.0,80,0.00,,,0.00,5.000000,,2013-01-12 16:33:00,
2013-01-12 08:43:00,6.0,1.0,-100.00,SSW,206,4.0,8.0,80,0.00,,,0.00,5.000000,,2013-01-12 16:43:00,
2013-01-12 08:53:00,6.0,1.0,-100.00,SSW,206,4.0,8.0,80,0.00,,,0.00,5.000000,,2013-01-12 16:53:00,
2013-01-12 09:02:00,6.0,1.0,-100.00,SSW,206,4.0,8.0,80,0.00,,,0.00,5.000000,,2013-01-12 17:02:00,
2013-01-12 09:12:00,6.0,1.0,-100.00,SSW,206,4.0,8.0,80,0.00,,,0.00,5.000000,,2013-01-12 17:12:00,
2013-01-12 09:33:00,14.0,5.0,-100.00,South,177,4.0,8.0,68,0.00,,,0.00,43.000000,,2013-01-12 17:33:00,
2013-01-12 10:12:00,14.0,5.0,-100.00,South,177,4.0,8.0,68,0.00,,,0.00,43.000000,,2013-01-12 18:12:00,
2013-01-12 10:33:00,18.0,7.0,-100.00,SSE,165,5.0,9.0,61,0.00,,,0.00,209.000000,,2013-01-12 18:33:00,
2013-01-12 11:33:00,21.0,7.0,-100.00,SSE,163,4.0,9.0,55,0.00,,,0.00,226.000000,,2013-01-12 19:33:00,
2013-01-12 12:02:00,21.0,7.0,-100.00,SSE,163,4.0,9.0,55,0.00,,,0.00,226.000000,,2013-01-12 20:02:00,
2013-01-12 12:12:00,21.0,7.0,-100.00,SSE,163,4.0,9.0,55,0.00,,,0.00,226.000000,,2013-01-12 20:12:00,
2013-01-12 12:33:00,24.0,6.0,-100.00,SSE,165,4.0,7.0,46,0.00,,,0.00,243.000000,,2013-01-12 20:33:00,
2013-01-12 13:02:00,24.0,6.0,-100.00,SSE,165,4.0,7.0,46,0.00,,,0.00,243.000000,,2013-01-12 21:02:00,
2013-01-12 13:12:00,24.0,6.0,-100.00,SSE,165,4.0,7.0,46,0.00,,,0.00,243.000000,,2013-01-12 21:12:00,
2013-01-12 13:33:00,30.0,5.0,-100.00,NE,51,2.0,6.0,34,0.00,,,0.00,346.000000,,2013-01-12 21:33:00,
2013-01-12 14:33:00,28.0,5.0,-100.00,North,3,5.0,9.0,36,0.00,,,0.00,283.000000,,2013-01-12 22:33:00,
2013-01-12 14:43:00,28.0,5.0,-100.00,North,3,5.0,9.0,36,0.00,,,0.00,283.000000,,2013-01-12 22:43:00,
2013-01-12 14:53:00,28.0,5.0,-100.00,North,3,5.0,9.0,36,0.00,,,0.00,283.000000,,2013-01-12 22:53:00,
2013-01-12 15:02:00,28.0,5.0,-100.00,North,3,5.0,9.0,36,0.00,,,0.00,283.000000,,2013-01-12 23:02:00,
2013-01-12 15:12:00,28.0,5.0,-100.00,North,3,5.0,9.0,36,0.00,,,0.00,283.000000,,2013-01-12 23:12:00,
2013-01-12 15:33:00,25.0,6.0,-100.00,NNW,335,7.0,11.0,44,0.00,,,0.00,120.000000,,2013-01-12 23:33:00,
2013-01-12 15:43:00,25.0,6.0,-100.00,NNW,335,7.0,11.0,44,0.00,,,0.00,120.000000,,2013-01-12 23:43:00,
2013-01-12 15:53:00,25.0,6.0,-100.00,NNW,335,7.0,11.0,44,0.00,,,0.00,120.000000,,2013-01-12 23:53:00,
2013-01-12 16:02:00,25.0,6.0,-100.00,NNW,335,7.0,11.0,44,0.00,,,0.00,120.000000,,2013-01-13 00:02:00,
2013-01-12 16:11:00,25.0,6.0,-100.00,NNW,335,7.0,11.0,44,0.00,,,0.00,120.000000,,2013-01-13 00:11:00,
2013-01-12 16:33:00,25.0,6.0,-100.00,NNE,21,2.0,9.0,44,0.00,,,0.00,137.000000,,2013-01-13 00:33:00,
2013-01-12 16:43:00,25.0,6.0,-100.00,NNE,21,2.0,9.0,44,0.00,,,0.00,137.000000,,2013-01-13 00:43:00,
2013-01-12 16:53:00,25.0,6.0,-100.00,NNE,21,2.0,9.0,44,0.00,,,0.00,137.000000,,2013-01-13 00:53:00,
2013-01-12 17:02:00,25.0,6.0,-100.00,NNE,21,2.0,9.0,44,0.00,,,0.00,137.000000,,2013-01-13 01:02:00,
2013-01-12 17:12:00,25.0,6.0,-100.00,NNE,21,2.0,9.0,44,0.00,,,0.00,137.000000,,2013-01-13 01:12:00,
2013-01-12 17:43:00,18.0,5.0,-100.00,WNW,292,1.0,5.0,56,0.00,,,0.00,10.000000,,2013-01-13 01:43:00,
2013-01-12 17:53:00,18.0,5.0,-100.00,WNW,292,1.0,5.0,56,0.00,,,0.00,10.000000,,2013-01-13 01:53:00,
2013-01-12 18:02:00,18.0,5.0,-100.00,WNW,292,1.0,5.0,56,0.00,,,0.00,10.000000,,2013-01-13 02:02:00,
2013-01-12 18:12:00,18.0,5.0,-100.00,WNW,292,1.0,5.0,56,0.00,,,0.00,10.000000,,2013-01-13 02:12:00,
2013-01-12 18:33:00,14.0,5.0,-100.00,WSW,247,3.0,5.0,67,0.00,,,0.00,0.000000,,2013-01-13 02:33:00,
2013-01-12 18:43:00,14.0,5.0,-100.00,WSW,247,3.0,5.0,67,0.00,,,0.00,0.000000,,2013-01-13 02:43:00,
2013-01-12 18:53:00,14.0,5.0,-100.00,WSW,247,3.0,5.0,67,0.00,,,0.00,0.000000,,2013-01-13 02:53:00,
2013-01-12 19:02:00,14.0,5.0,-100.00,WSW,247,3.0,5.0,67,0.00,,,0.00,0.000000,,2013-01-13 03:02:00,
2013-01-12 19:11:00,14.0,5.0,-100.00,WSW,247,3.0,5.0,67,0.00,,,0.00,0.000000,,2013-01-13 03:11:00,
2013-01-12 19:33:00,11.0,3.0,-100.00,WSW,248,4.0,6.0,71,0.00,,,0.00,0.000000,,2013-01-13 03:33:00,
2013-01-12 19:43:00,11.0,3.0,-100.00,WSW,248,4.0,6.0,71,0.00,,,0.00,0.000000,,2013-01-13 03:43:00,
2013-01-12 19:53:00,11.0,3.0,-100.00,WSW,248,4.0,6.0,71,0.00,,,0.00,0.000000,,2013-01-13 03:53:00,
2013-01-12 20:02:00,11.0,3.0,-100.00,WSW,248,4.0,6.0,71,0.00,,,0.00,0.000000,,2013-01-13 04:02:00,
2013-01-12 20:12:00,11.0,3.0,-100.00,WSW,248,4.0,6.0,71,0.00,,,0.00,0.000000,,2013-01-13 04:12:00,
2013-01-12 20:33:00,9.0,2.0,-100.00,WSW,249,4.0,6.0,71,0.00,,,0.00,0.000000,,2013-01-13 04:33:00,
2013-01-12 20:43:00,9.0,2.0,-100.00,WSW,249,4.0,6.0,71,0.00,,,0.00,0.000000,,2013-01-13 04:43:00,
2013-01-12 20:52:00,9.0,2.0,-100.00,WSW,249,4.0,6.0,71,0.00,,,0.00,0.000000,,2013-01-13 04:52:00,
2013-01-12 21:03:00,9.0,2.0,-100.00,WSW,249,4.0,6.0,71,0.00,,,0.00,0.000000,,2013-01-13 05:03:00,
2013-01-12 21:12:00,9.0,2.0,-100.00,WSW,249,4.0,6.0,71,0.00,,,0.00,0.000000,,2013-01-13 05:12:00,
2013-01-12 21:33:00,8.0,2.0,-100.00,WSW,246,5.0,6.0,75,0.00,,,0.00,0.000000,,2013-01-13 05:33:00,
2013-01-12 21:42:00,8.0,2.0,-100.00,WSW,246,5.0,6.0,75,0.00,,,0.00,0.000000,,2013-01-13 05:42:00,
2013-01-12 21:53:00,8.0,2.0,-100.00,WSW,246,5.0,6.0,75,0.00,,,0.00,0.000000,,2013-01-13 05:53:00,
2013-01-12 22:02:00,8.0,2.0,-100.00,WSW,246,5.0,6.0,75,0.00,,,0.00,0.000000,,2013-01-13 06:02:00,
2013-01-12 22:12:00,8.0,2.0,-100.00,WSW,246,5.0,6.0,75,0.00,,,0.00,0.000000,,2013-01-13 06:12:00,
2013-01-12 22:33:00,6.0,0.0,-100.00,WSW,245,5.0,7.0,76,0.00,,,0.00,0.000000,,2013-01-13 06:33:00,
2013-01-12 22:42:00,6.0,0.0,-100.00,WSW,245,5.0,7.0,76,0.00,,,0.00,0.000000,,2013-01-13 06:42:00,
2013-01-12 22:52:00,6.0,0.0,-100.00,WSW,245,5.0,7.0,76,0.00,,,0.00,0.000000,,2013-01-13 06:52:00,
2013-01-12 23:02:00,6.0,0.0,-100.00,WSW,245,5.0,7.0,76,0.00,,,0.00,0.000000,,2013-01-13 07:02:00,
2013-01-12 23:11:00,6.0,0.0,-100.00,WSW,245,5.0,7.0,76,0.00,,,0.00,0.000000,,2013-01-13 07:11:00,
2013-01-12 23:33:00,6.0,-1.0,-100.00,WSW,244,5.0,6.0,73,0.00,,,0.00,0.000000,,2013-01-13 07:33:00,
2013-01-12 23:42:00,6.0,-1.0,-100.00,WSW,244,5.0,6.0,73,0.00,,,0.00,0.000000,,2013-01-13 07:42:00,
2013-01-12 23:52:00,6.0,-1.0,-100.00,WSW,244,5.0,6.0,73,0.00,,,0.00,0.000000,,2013-01-13 07:52:00,